WetterOnline ( http://www.wetteronline.de )

Wetter aktuell Euskirchen

Aktuelles Wetter: Nürburg-Barweiler (488m)

6-stündlich | Neueste Meldungen
Ortszeit Temperatur Wetter
Sa, 21.04. 20:00 19.0° C leicht bewölkt
Sa, 21.04. 14:00 21.1° C leicht bewölkt
Sa, 21.04. 8:00 13.1° C bedeckt
Sa, 21.04. 2:00 16.6° C leicht bewölkt
Fr, 20.04. 20:00 21.6° C wolkig
Fr, 20.04. 14:00 23.7° C wolkig
Fr, 20.04. 8:00 13.1° C wolkig
Fr, 20.04. 2:00 18.8° C fast wolkenlos
Ortszeit Temperatur Wetter
Sa, 21.04. 21:00 17.9° C leicht bewölkt
Sa, 21.04. 20:50 17.9° C leicht bewölkt
Sa, 21.04. 20:40 18.0° C fast wolkenlos
Sa, 21.04. 20:30 18.6° C wolkenlos
Sa, 21.04. 20:20 18.6° C wolkenlos
Sa, 21.04. 20:10 18.5° C fast wolkenlos
Sa, 21.04. 20:00 19.0° C leicht bewölkt
Sa, 21.04. 19:30 19.5° C leicht bewölkt
Sa, 21.04. 19:00 20.2° C wolkig
Sa, 21.04. 18:30 20.7° C leicht bewölkt
Sa, 21.04. 18:00 21.0° C wolkig
Ortszeit Relative Feuchte Sichtweite
Sa, 21.04. 20:00 48% 10 km
Sa, 21.04. 14:00 45% 10 km
Sa, 21.04. 8:00 76% 6 km
Sa, 21.04. 2:00 64% 11 km
Fr, 20.04. 20:00 44% 24 km
Fr, 20.04. 14:00 27% 19 km
Fr, 20.04. 8:00 56% 29 km
Fr, 20.04. 2:00 38% 35 km
Ortszeit Relative Feuchte Sichtweite
Sa, 21.04. 21:00 51% 12 km
Sa, 21.04. 20:50 51% -
Sa, 21.04. 20:40 51% -
Sa, 21.04. 20:30 48% 12 km
Sa, 21.04. 20:20 48% -
Sa, 21.04. 20:10 49% -
Sa, 21.04. 20:00 48% 10 km
Sa, 21.04. 19:30 49% 11 km
Sa, 21.04. 19:00 48% 9 km
Sa, 21.04. 18:30 48% 9 km
Sa, 21.04. 18:00 49% 8 km
Ortszeit Niederschlagsmenge Niederschlagsart
Sa, 21.04. 20:00 0.0 l/m2 in 12 Std. -
Sa, 21.04. 14:00 0.0 l/m2 in 6 Std. -
Sa, 21.04. 8:00 0.0 l/m2 in 12 Std. -
Sa, 21.04. 2:00 0.0 l/m2 in 6 Std. -
Fr, 20.04. 20:00 0.0 l/m2 in 12 Std. -
Fr, 20.04. 14:00 0.0 l/m2 in 6 Std. -
Fr, 20.04. 8:00 0.0 l/m2 in 12 Std. -
Fr, 20.04. 2:00 0.0 l/m2 in 6 Std. -
Ortszeit Niederschlagsmenge Niederschlagsart
Sa, 21.04. 21:00 0.0 l/m2 in 1 Std. -
Sa, 21.04. 20:50 keine Meldung -
Sa, 21.04. 20:40 keine Meldung -
Sa, 21.04. 20:30 0.0 l/m2 in 1 Std. -
Sa, 21.04. 20:20 keine Meldung -
Sa, 21.04. 20:10 keine Meldung -
Sa, 21.04. 20:00 0.0 l/m2 in 1 Std. -
Sa, 21.04. 19:30 0.0 l/m2 in 1 Std. -
Sa, 21.04. 19:00 0.0 l/m2 in 1 Std. -
Sa, 21.04. 18:30 0.0 l/m2 in 1 Std. -
Sa, 21.04. 18:00 0.0 l/m2 in 1 Std. -
Ortszeit Stärke Spitze Richtung
km/h Bft. km/h Grad Sektor
Sa, 21.04. 20:00 11 2 25 30° NO
Sa, 21.04. 14:00 13 3 24 50° NO
Sa, 21.04. 8:00 4 1 11 40° NO
Sa, 21.04. 2:00 7 2 20 10° N
Fr, 20.04. 20:00 7 2 25 30° NO
Fr, 20.04. 14:00 7 2 11 320° NW
Fr, 20.04. 8:00 4 1 18 190° S
Fr, 20.04. 2:00 11 2 22 140° SO
Ortszeit Stärke Spitze Richtung
km/h Bft. km/h Grad Sektor
Sa, 21.04. 21:00 7 2 14 30° NO
Sa, 21.04. 20:50 7 2 - 30° NO
Sa, 21.04. 20:40 7 2 - 20° N
Sa, 21.04. 20:30 7 2 14 30° NO
Sa, 21.04. 20:20 7 2 - 30° NO
Sa, 21.04. 20:10 7 2 - 30° NO
Sa, 21.04. 20:00 11 2 18 30° NO
Sa, 21.04. 19:30 11 2 19 30° NO
Sa, 21.04. 19:00 14 3 22 30° NO
Sa, 21.04. 18:30 14 3 22 30° NO
Sa, 21.04. 18:00 13 3 26 20° N
Ortszeit Untergrenze Bedeckung Gattung
total tief tief mittel hoch
Sa, 21.04. 20:00 9000 m 4/8 0/8 - - -
Sa, 21.04. 14:00 1470 m 3/8 - - - -
Sa, 21.04. 8:00 - 8/8 - - - -
Sa, 21.04. 2:00 3600 m 5/8 2/8 - - -
Fr, 20.04. 20:00 2700 m 7/8 4/8 - - -
Fr, 20.04. 14:00 3300 m 6/8 - - - -
Fr, 20.04. 8:00 10500 m 8/8 0/8 - - -
Fr, 20.04. 2:00 10500 m 2/8 0/8 - - -
Ortszeit Bedeckungsgrad in Achtel und Wolkenuntergrenze
Sa, 21.04. 21:00 1(2700m) 3(9000m)
Sa, 21.04. 20:50 1(2700m) 3(9000m)
Sa, 21.04. 20:40 1(2700m)
Sa, 21.04. 20:30 1(2700m)
Sa, 21.04. 20:20 keine Wolken
Sa, 21.04. 20:10 2(9000m)
Sa, 21.04. 20:00 4(9000m)
Sa, 21.04. 19:30 2(2400m)
Sa, 21.04. 19:00 4(2400m)
Sa, 21.04. 18:30 3(2400m) 9 9
Sa, 21.04. 18:00 9 9 9
Ortszeit Luftdruck NN (hPa) Tendenz (hPa in 3 Std.)
Sa, 21.04. 20:00 1018 - 0,9
Sa, 21.04. 14:00 1020 - 0,9
Sa, 21.04. 8:00 1022 + 0,3
Sa, 21.04. 2:00 1022 + 0,1
Fr, 20.04. 20:00 1021 - 0,5
Fr, 20.04. 14:00 1022 - 0,8
Fr, 20.04. 8:00 1025 - 0,4
Fr, 20.04. 2:00 1025 - 0,4
Ortszeit Luftdruck NN (hPa) Tendenz (hPa in 3 Std.)
Sa, 21.04. 21:00 1018 - 0,3
Sa, 21.04. 20:50 1018 keine Meldung
Sa, 21.04. 20:40 1018 keine Meldung
Sa, 21.04. 20:30 1018 - 0,6
Sa, 21.04. 20:20 1018 keine Meldung
Sa, 21.04. 20:10 1018 keine Meldung
Sa, 21.04. 20:00 1018 - 0,9
Sa, 21.04. 19:30 1018 - 0,9
Sa, 21.04. 19:00 1018 - 1,1
Sa, 21.04. 18:30 1018 - 1,4
Sa, 21.04. 18:00 1018 - 1,5
Ortszeit Schneehöhe (cm)
Sa, 21.04. 20:00 -
Sa, 21.04. 14:00 0
Sa, 21.04. 8:00 0
Sa, 21.04. 2:00 0
Fr, 20.04. 20:00 0
Fr, 20.04. 14:00 0
Fr, 20.04. 8:00 0
Fr, 20.04. 2:00 0
Ortszeit Schneehöhe (cm)
Sa, 21.04. 21:00 -
Sa, 21.04. 20:50 -
Sa, 21.04. 20:40 -
Sa, 21.04. 20:30 -
Sa, 21.04. 20:20 -
Sa, 21.04. 20:10 -
Sa, 21.04. 20:00 -
Sa, 21.04. 19:30 -
Sa, 21.04. 19:00 -
Sa, 21.04. 18:30 -
Sa, 21.04. 18:00 -
Link zu dieser Seite / Seite empfehlen

Das Wetter in ...